[[{"header":{"parameterUnit":"m.s-1","parameterCategory":1,"la1":30.2991,"la2":30.254,"lo1":-89.0895,"lo2":-89.0444,"dy":0.0017,"dx":0.0017,"nx":28,"ny":28,"refTime":"2023-08-01T09:00:00:Z","depth":0,"parameterNumber":2,"parameterNumberName":"U-component_of_WINDS"},"data":[0,0,0,0,0,0,0,0,0,0,0,0,0,0,0,0,0,0,0,0,0,0,0,0,0,0,0,0,0,0,0,0,0,0,0,0,0,0,0,0,0,0,0,0,0,0,0,0,0,0,0,0,0,0,0,0,0,0,0.1775,0.1775,0,0.1831,0.1832,0.1833,0.187,0.187,0.1871,0.1871,0.1925,0.1926,0.1928,0,0,0,0,0,0,0,0,0,0,0,0,0,0.1695,0.1696,0.1775,0.1775,0.1776,0.1831,0.1832,0.1833,0.187,0.187,0.1871,0.1871,0.1925,0.1926,0.1928,0,0,0,0,0,0,0,0,0,0,0,0,0,0.1738,0.1696,0.1775,0.1801,0.1804,0.1831,0.1832,0.1833,0.187,0.187,0.1871,0.1871,0.1924,0.1926,0.1928,0.1931,0,0,0.1934,0.1934,0,0,0,0,0,0,0,0,0.1736,0.1741,0.1797,0.18,0.1803,0.1844,0.1824,0.1866,0.187,0.1845,0.1871,0.1871,0.1898,0.1902,0.1911,0.1934,0.1936,0.1934,0.1935,0.1936,0.1936,0,0,0,0,0,0,0,0.1733,0.1739,0.1797,0.1797,0.1801,0.1809,0.1816,0.1832,0.1868,0.1847,0.185,0.1856,0.19,0.191,0.1913,0.1937,0.1934,0.1935,0.1936,0.1937,0.1964,0.1964,0,0,0,0,0,0,0.1726,0.1736,0.1795,0.1799,0.177,0.181,0.1818,0.183,0.1868,0.1875,0.1856,0.1858,0.1906,0.1911,0.1915,0.1921,0.1936,0.1937,0.1938,0.1965,0.1964,0.1964,0,0,0,0,0,0,0.1724,0.1731,0.1793,0.1768,0.1777,0.1812,0.1825,0.1831,0.1842,0.1875,0.1881,0.186,0.1907,0.1913,0.1927,0.1923,0.1938,0.194,0.1965,0.1965,0.1964,0.1933,0,0,0,0,0,0,0.1722,0.173,0.1732,0.1768,0.1778,0.1805,0.1825,0.1832,0.1845,0.1848,0.188,0.1886,0.1908,0.1924,0.1929,0.1926,0.1941,0.1966,0.1965,0.1964,0.1935,0.1932,0.1929,0,0,0,0,0,0.1719,0.1721,0.1732,0.1739,0.1782,0.1805,0.181,0.1836,0.1845,0.1847,0.1868,0.1885,0.1923,0.1925,0.1931,0.1929,0.1966,0.1965,0.1964,0.1936,0.1932,0.1929,0,0,0,0,0,0,0.1682,0.1726,0.1739,0.1753,0.1775,0.1811,0.1815,0.1831,0.185,0.1852,0.1882,0.1889,0.19,0.1916,0.1918,0.1934,0.1947,0.1947,0.1923,0.192,0.1917,0.1912,0.1943,0,0,0,0,0,0.1676,0.1692,0.1729,0.1738,0.1748,0.1779,0.179,0.1808,0.1832,0.1841,0.1863,0.1884,0.1901,0.1911,0.1929,0.1937,0.1944,0.1938,0.1936,0.1933,0.1933,0.1938,0.1935,0.1961,0.1961,0.1961,0,0,0.1663,0.1689,0.1697,0.1731,0.175,0.1765,0.1787,0.1802,0.1812,0.1843,0.1858,0.1875,0.1901,0.1912,0.1918,0.1925,0.1927,0.1932,0.193,0.1931,0.1936,0.1934,0.1932,0.1961,0.1961,0.1961,0,0,0.1647,0.1669,0.1678,0.1697,0.1726,0.1747,0.1749,0.1783,0.1796,0.1812,0.1835,0.1848,0.1876,0.1893,0.1905,0.1896,0.1911,0.19,0.1885,0.189,0.1888,0.1886,0.1881,0.188,0.19,0.19,0.19,0,0.1626,0.1651,0.168,0.1694,0.1708,0.1737,0.1746,0.1763,0.1795,0.1804,0.1812,0.1848,0.1867,0.1883,0.188,0.189,0.1892,0.1896,0.1886,0.1884,0.1883,0.1879,0.1878,0.1898,0.1898,0.1899,0.1899,0,0.1624,0.1641,0.1645,0.1677,0.1691,0.1702,0.1732,0.1743,0.176,0.1779,0.1795,0.1819,0.1841,0.1847,0.1863,0.1864,0.1868,0.188,0.1894,0.1879,0.1875,0.1874,0.1896,0.1897,0.1897,0.1897,0,0,0.1586,0.1635,0.1635,0.165,0.1685,0.1698,0.171,0.1733,0.1741,0.1763,0.1773,0.1796,0.1808,0.1822,0.184,0.1844,0.1834,0.1857,0.1858,0.1851,0.1836,0.1825,0.1823,0.1845,0.1845,0.1845,0.1834,0,0.1574,0.1599,0.1625,0.164,0.1655,0.1683,0.1694,0.1715,0.1734,0.1748,0.1768,0.1784,0.18,0.1808,0.1813,0.1834,0.1831,0.1835,0.1853,0.1854,0.1845,0.1822,0.1811,0.1799,0.1833,0.1832,0.1832,0,0.1563,0.1585,0.1601,0.1634,0.1642,0.1651,0.1674,0.1688,0.1712,0.1726,0.1741,0.1761,0.1774,0.1787,0.1804,0.1806,0.1815,0.1826,0.1826,0.1828,0.1841,0.1822,0.1796,0.1794,0.1831,0.1831,0.1831,0,0.1532,0.1565,0.1579,0.1591,0.1631,0.1636,0.1652,0.1678,0.169,0.171,0.1718,0.1738,0.1749,0.1764,0.1789,0.1796,0.1803,0.1818,0.1813,0.1812,0.1813,0.1812,0.1786,0.182,0.182,0.182,0.182,0,0.1515,0.1524,0.1566,0.1574,0.1585,0.1615,0.1624,0.1643,0.1665,0.1677,0.1702,0.1712,0.1744,0.1758,0.1777,0.1788,0.1793,0.1803,0.1808,0.18,0.1799,0.1805,0.1806,0.182,0.182,0.182,0.182,0,0.1482,0.1511,0.1528,0.1564,0.1573,0.1579,0.161,0.1618,0.1639,0.1653,0.1658,0.1689,0.1707,0.1733,0.1758,0.1771,0.1778,0.1786,0.177,0.1772,0.1766,0.1766,0.1743,0.1741,0.1777,0.1776,0.1776,0,0.1469,0.1476,0.1514,0.1524,0.154,0.1556,0.1569,0.1599,0.1612,0.164,0.1645,0.1665,0.1682,0.1708,0.1732,0.1751,0.1759,0.175,0.1762,0.1754,0.1758,0.1757,0.1757,0.1747,0.1746,0.1746,0.1746,0,0.1442,0.1456,0.1475,0.1498,0.1513,0.1532,0.1553,0.156,0.1594,0.1606,0.1625,0.1638,0.1664,0.1682,0.1705,0.172,0.1738,0.1742,0.1742,0.1733,0.1723,0.1727,0.1761,0.1742,0.1742,0.1742,0.1743,0.1743,0.1417,0.1425,0.1453,0.1473,0.1492,0.1511,0.1521,0.1543,0.1559,0.1584,0.16,0.1618,0.1642,0.1674,0.1688,0.1701,0.1709,0.1709,0.1709,0.1708,0.1704,0.1722,0.1706,0.1706,0.1706,0.1706,0.1706,0,0.1391,0.1411,0.1429,0.1457,0.1472,0.149,0.1514,0.1524,0.154,0.1562,0.1579,0.1599,0.1618,0.1644,0.1664,0.1669,0.1678,0.1673,0.1672,0.1675,0.1697,0.1695,0.1666,0.1666,0.1666,0.1666,0.1666,0.1666,0.1379,0.1393,0.1411,0.1434,0.1453,0.1472,0.1484,0.1501,0.1518,0.1541,0.1557,0.1574,0.1597,0.1619,0.1636,0.1643,0.1649,0.1641,0.1651,0.167,0.1674,0.1677,0.1675,0.1643,0.1643,0.1628,0.1628,0.1628]},{"header":{"parameterUnit":"m.s-1","parameterCategory":1,"la1":30.2991,"la2":30.254,"lo1":-89.0895,"lo2":-89.0444,"dy":0.0017,"dx":0.0017,"nx":28,"ny":28,"refTime":"2023-08-01T09:00:00:Z","depth":0,"parameterNumber":3,"parameterNumberName":"V-component_of_WINDS"},"data":[0,0,0,0,0,0,0,0,0,0,0,0,0,0,0,0,0,0,0,0,0,0,0,0,0,0,0,0,0,0,0,0,0,0,0,0,0,0,0,0,0,0,0,0,0,0,0,0,0,0,0,0,0,0,0,0,0,0,3.8734,3.8733,0,3.8698,3.8698,3.8697,3.8643,3.8642,3.8641,3.864,3.8602,3.8602,3.8602,0,0,0,0,0,0,0,0,0,0,0,0,0,3.8755,3.8755,3.8734,3.8733,3.8733,3.8698,3.8698,3.8697,3.8643,3.8642,3.8641,3.8639,3.8602,3.8602,3.8602,0,0,0,0,0,0,0,0,0,0,0,0,0,3.8735,3.8755,3.8734,3.8702,3.8699,3.8698,3.8697,3.8697,3.8643,3.8642,3.864,3.8639,3.8602,3.8602,3.8602,3.863,0,0,3.8602,3.8602,0,0,0,0,0,0,0,0,3.8737,3.8735,3.8707,3.8704,3.87,3.8673,3.8691,3.8674,3.8644,3.8664,3.864,3.8638,3.8627,3.8625,3.8621,3.8628,3.8627,3.8602,3.8602,3.8602,3.8601,0,0,0,0,0,0,0,3.8738,3.8736,3.872,3.8707,3.8703,3.8689,3.8685,3.8688,3.8654,3.8662,3.8658,3.8655,3.8625,3.8622,3.862,3.8626,3.8602,3.8602,3.8601,3.8601,3.8654,3.8655,0,0,0,0,0,0,3.8744,3.8737,3.8721,3.8719,3.8715,3.869,3.8685,3.8683,3.8654,3.8648,3.8656,3.8652,3.8623,3.862,3.8618,3.8649,3.8602,3.8601,3.8601,3.8652,3.8654,3.8656,0,0,0,0,0,0,3.8745,3.8743,3.8722,3.8727,3.8723,3.8691,3.869,3.8684,3.868,3.8649,3.8643,3.8659,3.8621,3.8619,3.8628,3.8647,3.8601,3.8601,3.8651,3.8653,3.8655,3.871,0,0,0,0,0,0,3.8746,3.8744,3.8754,3.8728,3.8723,3.8732,3.8691,3.8684,3.868,3.8675,3.865,3.8645,3.862,3.8628,3.8627,3.8646,3.8601,3.8649,3.8652,3.8654,3.8706,3.8714,3.872,0,0,0,0,0,3.8747,3.8771,3.8755,3.8753,3.8735,3.8733,3.8731,3.8702,3.8682,3.8692,3.8672,3.8645,3.8645,3.8629,3.8628,3.8647,3.8647,3.8651,3.8654,3.8703,3.8712,3.872,0,0,0,0,0,0,3.88,3.8767,3.8749,3.8765,3.8753,3.8724,3.8736,3.8713,3.8706,3.8701,3.8666,3.8661,3.8674,3.8661,3.8645,3.8672,3.8642,3.8645,3.868,3.8688,3.8695,3.8697,3.8601,0,0,0,0,0,3.8814,3.8816,3.8786,3.8803,3.8798,3.8768,3.8766,3.8746,3.8731,3.8725,3.8706,3.8693,3.869,3.8688,3.8684,3.8704,3.8698,3.8716,3.8723,3.8729,3.8732,3.8742,3.8749,3.8667,3.8667,3.8667,0,0,3.8842,3.8824,3.8827,3.8814,3.8801,3.8803,3.8764,3.8768,3.8769,3.8726,3.8733,3.8719,3.8701,3.8716,3.8722,3.8706,3.8754,3.8733,3.8738,3.8738,3.8746,3.8754,3.8761,3.8669,3.8669,3.8668,0,0,3.8895,3.8882,3.8894,3.8883,3.8865,3.8845,3.8849,3.8824,3.8813,3.882,3.8787,3.8788,3.8783,3.8772,3.8766,3.8815,3.879,3.8815,3.8851,3.886,3.8867,3.8872,3.8889,3.8896,3.8818,3.8818,3.8818,0,3.8932,3.8934,3.8904,3.891,3.8904,3.8866,3.8879,3.8869,3.8851,3.8848,3.8831,3.8824,3.881,3.8821,3.8833,3.883,3.8832,3.8817,3.8868,3.8874,3.8878,3.8894,3.8901,3.8821,3.8821,3.882,3.882,0,3.8981,3.8982,3.8995,3.8978,3.8975,3.8984,3.8955,3.8955,3.8935,3.8917,3.8924,3.8906,3.8896,3.8898,3.8878,3.8907,3.8897,3.8875,3.8844,3.889,3.8904,3.891,3.8825,3.8824,3.8823,3.8823,0,0,3.9065,3.9032,3.9037,3.9029,3.9007,3.9007,3.9015,3.9006,3.9007,3.8996,3.9001,3.8998,3.8977,3.897,3.8949,3.8958,3.8997,3.8934,3.8933,3.8945,3.9026,3.9043,3.905,3.8981,3.8982,3.8982,3.9028,0,3.9112,3.9123,3.9096,3.9114,3.9115,3.9079,3.9085,3.9072,3.9056,3.9054,3.9036,3.9034,3.9007,3.9003,3.901,3.8991,3.9012,3.8987,3.8984,3.8984,3.8989,3.9058,3.9075,3.9118,3.9033,3.9034,3.9035,0,3.9169,3.9161,3.9178,3.9155,3.9155,3.9161,3.9151,3.915,3.9135,3.9122,3.9115,3.909,3.9096,3.9067,3.9073,3.9057,3.9054,3.9045,3.9046,3.9043,3.9012,3.9057,3.9132,3.9138,3.9043,3.9042,3.9042,0,3.9227,3.9221,3.9231,3.9225,3.9199,3.9204,3.9193,3.9176,3.9173,3.9164,3.9161,3.9154,3.9149,3.9143,3.9117,3.9099,3.9127,3.9096,3.9116,3.9117,3.9122,3.9122,3.9197,3.9123,3.9123,3.9122,3.9122,0,3.9282,3.9295,3.9257,3.9263,3.9275,3.9245,3.9258,3.9243,3.9229,3.9231,3.9199,3.9202,3.9168,3.9167,3.9146,3.9154,3.9153,3.9142,3.9137,3.9145,3.9146,3.9142,3.9138,3.9124,3.9124,3.9123,3.9123,0,3.935,3.9325,3.9333,3.9308,3.9302,3.9312,3.929,3.9294,3.9276,3.9279,3.9278,3.925,3.9247,3.922,3.9211,3.9197,3.9213,3.9202,3.9219,3.9215,3.9236,3.9234,3.931,3.9318,3.9239,3.924,3.9241,0,3.9386,3.9394,3.937,3.9369,3.936,3.936,3.9356,3.9327,3.9324,3.9307,3.9314,3.9308,3.9302,3.9299,3.9277,3.927,3.9258,3.9285,3.9257,3.9265,3.9257,3.9257,3.9257,3.9291,3.9292,3.9293,3.9294,0,3.9453,3.944,3.9436,3.9429,3.9425,3.9418,3.9408,3.9409,3.9377,3.9375,3.9372,3.9368,3.9359,3.9354,3.9343,3.9331,3.9307,3.9303,3.9307,3.9315,3.9324,3.9318,3.9234,3.9301,3.93,3.93,3.9299,3.9299,3.9505,3.9511,3.9495,3.9491,3.9481,3.9473,3.9475,3.9458,3.9455,3.9446,3.9428,3.9428,3.9412,3.9395,3.9386,3.9384,3.937,3.9376,3.9377,3.9379,3.9383,3.9325,3.9382,3.9382,3.9382,3.9382,3.9381,0,3.9569,3.9557,3.9555,3.9542,3.954,3.9518,3.9506,3.9506,3.9505,3.9493,3.9488,3.9484,3.9479,3.9458,3.945,3.9453,3.9442,3.9452,3.9451,3.9448,3.9397,3.9394,3.9461,3.9461,3.9461,3.9461,3.9461,3.9461,3.9603,3.9611,3.9597,3.96,3.9587,3.9587,3.9582,3.9574,3.9564,3.9561,3.9557,3.9543,3.9527,3.9518,3.9512,3.9506,3.9504,3.9518,3.9508,3.946,3.9452,3.9445,3.9442,3.9518,3.9518,3.9559,3.956,3.956]}]]